Location: Worth Mountain WMA
(34.9569°N, 81.4819°W)
Time: 05:49:03
(UTC-04:00)

Amateur Radio Satellites - All Passes

Search period start: 02 July 2015 05:19
Search period end: 03 July 2015 05:19
Location: Worth Mountain WMA, 34.9569°N, 81.4819°W

Satellite Date Start Highest point End Downlink Frequencies (MHz)
Time Altitude Azimuth
JAS-2 02 Jul 05:30:18 05:36:45 58° 286° (WNW) 05:43:56 435.910
HORYU 2 02 Jul 05:50:31 05:54:41 39° 287° (WNW) 05:58:49 437.375
AO-7 02 Jul 05:56:38 06:05:01 76° 289° (WNW) 06:13:18 29.400- 29.500
Cubesat XI-IV 02 Jul 06:25:27 06:27:07 12° 89° (E) 06:29:10 437.490
MOZHAYETS 4 02 Jul 06:31:35 06:34:03 14° 269° (W) 06:36:17
STRAND 1 02 Jul 06:37:50 06:41:17 19° 67° (ENE) 06:44:56 437.568
PRISM 02 Jul 06:38:52 06:40:59 14° 68° (ENE) 06:43:19 437.425
CUBESAT XI-V 02 Jul 06:47:46 06:52:24 65° 76° (ENE) 06:57:06 437.345
RS-15 02 Jul 06:50:49 06:57:43 17° 337° (NNW) 07:04:21 29.354- 29.394
YUBILEINY 02 Jul 06:55:28 06:58:44 12° 300° (WNW) 07:01:14 435.215
Cosmos 2504 02 Jul 07:04:40 07:11:59 87° 276° (W) 07:19:10 435.465 / 435.565
CUSAT 1 02 Jul 07:21:18 07:22:07 10° 91° (E) 07:23:27 437.405
CUTE-I 02 Jul 07:29:10 07:34:25 55° 100° (E) 07:39:40 437.470
O/OREOS (USA 219) 02 Jul 07:50:54 07:54:28 25° 103° (ESE) 07:58:09 437.305
AO-7 02 Jul 07:52:12 07:56:38 15° 306° (NW) 08:00:34 29.400- 29.500
BEESAT 3 02 Jul 07:53:43 07:57:18 31° 113° (ESE) 08:00:58 437.485
DANDE 02 Jul 08:01:33 08:07:06 23° 93° (E) 08:12:08 436.750
BEESAT 2 02 Jul 08:02:07 08:05:41 30° 113° (ESE) 08:09:21 435.950
Cubesat XI-IV 02 Jul 08:02:28 08:07:50 71° 285° (WNW) 08:13:09 437.490
PRISM 02 Jul 08:12:12 08:16:07 40° 261° (W) 08:20:04 437.425
BRITE-PL 02 Jul 08:13:22 08:14:39 11° 89° (E) 08:16:13 437.365/2234.400
STRAND 1 02 Jul 08:15:17 08:20:10 45° 261° (W) 08:25:06 437.568
VERMONT LUNAR 02 Jul 08:36:19 08:39:12 37° 150° (SSE) 08:42:07 437.305
CUTE 1.7 + AOD 2 02 Jul 08:55:40 08:56:46 11° 90° (E) 08:58:09 437.475
AUBIESAT-1 02 Jul 08:56:13 08:59:24 51° 71° (ENE) 09:02:41 437.475
CUSAT 1 02 Jul 08:57:27 09:04:41 87° 99° (E) 09:10:17 437.405
CANX-2 02 Jul 08:57:44 08:59:49 14° 91° (E) 09:02:07 2200.000
DOVE 4 02 Jul 08:58:52 09:00:45 13° 91° (E) 09:02:53 437.250
AIST 2 02 Jul 09:02:52 09:06:41 34° 114° (ESE) 09:10:35 435.215
Cosmos 2504 02 Jul 09:04:06 09:06:38 11° 297° (WNW) 09:08:34 435.465 / 435.565
HO-68 02 Jul 09:08:22 09:14:09 27° 95° (E) 09:20:08 435.675
CUTE-I 02 Jul 09:10:39 09:14:06 17° 294° (WNW) 09:17:18 437.470
RS-15 02 Jul 09:11:56 09:16:55 13° 13° (NNE) 09:22:18 29.354- 29.394
GONETS M04 02 Jul 09:27:36 09:35:39 43° 89° (E) 09:43:48
M-CUBED/EXP-1 PRIME 02 Jul 09:28:07 09:31:13 39° 256° (WSW) 09:34:22 437.505
O/OREOS (USA 219) 02 Jul 09:30:06 09:33:50 25° 298° (WNW) 09:37:29 437.305
BEESAT 3 02 Jul 09:32:15 09:35:20 20° 309° (NW) 09:38:21 437.485
ISS 02 Jul 09:33:13 09:36:27 70° 320° (NW) 09:39:41 145.825
GOMX 1 02 Jul 09:37:58 09:42:11 73° 102° (ESE) 09:46:18 467.674
BEESAT 2 02 Jul 09:40:37 09:43:48 21° 309° (NW) 09:46:56 435.950
DANDE 02 Jul 09:42:30 09:50:12 57° 280° (W) 09:56:17 436.750
SEEDS 02 Jul 09:45:49 09:49:46 37° 97° (E) 09:53:44 437.485
BRITE-PL 02 Jul 09:49:30 09:53:38 44° 286° (WNW) 09:57:34 437.365/2234.400
PHONESAT 2.4 02 Jul 09:53:29 09:56:29 29° 148° (SSE) 09:59:32 2401.200-2431.200
Oscar 11 02 Jul 10:00:58 10:03:30 16° 92° (E) 10:06:14 145.826/435.025
CINEMA 3 02 Jul 10:02:14 10:06:00 33° 97° (E) 10:09:52 145.822/145.860
AAUSAT CUBESAT 2 02 Jul 10:03:30 10:07:28 39° 98° (E) 10:11:26 437.432
VERMONT LUNAR 02 Jul 10:13:07 10:16:07 43° 345° (NNW) 10:19:09 437.305
FUNcube-1 02 Jul 10:23:32 10:25:59 15° 92° (E) 10:28:38 145.935
COMPASS 1 02 Jul 10:27:08 10:31:22 85° 284° (WNW) 10:35:36 437.405
UWE-3 02 Jul 10:28:14 10:31:38 24° 95° (E) 10:35:10 435.000/436.395/437.385
CUTE 1.7 + AOD 2 02 Jul 10:28:52 10:33:02 50° 285° (WNW) 10:37:10 437.475
CANX-2 02 Jul 10:31:55 10:35:58 41° 286° (WNW) 10:39:59 2200.000
ANTELSAT 02 Jul 10:31:56 10:35:21 24° 71° (ENE) 10:38:50 437.575/2403.000
DOVE 4 02 Jul 10:34:56 10:38:47 37° 286° (WNW) 10:42:36 437.250
DELFI C3 02 Jul 10:37:12 10:40:41 28° 96° (E) 10:44:14 145.870
AIST 2 02 Jul 10:42:08 10:45:22 20° 310° (NW) 10:48:31 435.215
TIGRISAT 02 Jul 10:45:01 10:48:51 32° 73° (ENE) 10:52:42 435.000
CUSAT 1 02 Jul 10:45:03 10:47:32 12° 289° (WNW) 10:49:24 437.405
HO-68 02 Jul 10:55:18 11:02:09 49° 291° (WNW) 11:08:57 435.675
QB50P1 02 Jul 11:05:18 11:08:37 23° 71° (ENE) 11:12:02 145.935-145.965
CUBEBUG 2 02 Jul 11:07:32 11:11:45 84° 285° (WNW) 11:16:02 437.445
DX 1 02 Jul 11:08:39 11:11:33 18° 93° (E) 11:14:35 434.975-435.025
ISS 02 Jul 11:12:34 11:13:22 11° 336° (NNW) 11:14:06 145.825
NANOSAT C BR1 02 Jul 11:20:00 11:23:48 33° 73° (ENE) 11:27:39 145.865
ZACube-1 02 Jul 11:20:58 11:25:11 82° 102° (ESE) 11:29:29 437.345
SEEDS 02 Jul 11:22:39 11:25:17 16° 291° (WNW) 11:27:44 437.485
UNISAT 6 02 Jul 11:23:06 11:27:26 81° 259° (W) 11:31:44 437.425
RS-15 02 Jul 11:23:52 11:34:19 37° 45° (NE) 11:45:23 29.354- 29.394
GONETS M04 02 Jul 11:24:38 11:32:37 36° 287° (WNW) 11:40:26
Cosmos 2499 02 Jul 11:24:43 11:31:24 47° 91° (E) 11:38:08 435.465 / 435.565
DUCHIFAT 1 02 Jul 11:27:40 11:31:38 40° 74° (ENE) 11:35:38 145.980
POLYITAN 1 02 Jul 11:29:23 11:33:26 45° 74° (ENE) 11:37:30 437.675
PHONESAT 2.4 02 Jul 11:31:00 11:34:23 56° 341° (NNW) 11:37:49 2401.200-2431.200
UKube-1 02 Jul 11:32:43 11:36:33 31° 97° (E) 11:40:25 .
AISAT 02 Jul 11:35:24 11:38:35 20° 94° (E) 11:41:54 437.250
Oscar 11 02 Jul 11:35:50 11:39:51 37° 287° (WNW) 11:43:50 145.826/435.025
CINEMA 3 02 Jul 11:40:22 11:43:00 16° 290° (WNW) 11:45:31 145.822/145.860
AAUSAT CUBESAT 2 02 Jul 11:40:22 11:42:45 14° 291° (WNW) 11:44:57 437.432
VERMONT LUNAR 02 Jul 11:50:41 11:53:27 28° 1° (N) 11:56:16 437.305
BUGSAT 1 02 Jul 11:55:39 11:59:49 58° 75° (ENE) 12:03:59 437.445
ESTCUBE 1 02 Jul 11:58:02 12:01:37 23° 94° (E) 12:05:16 437.505/2401.250
FUNcube-1 02 Jul 11:58:36 12:02:28 35° 286° (WNW) 12:06:20 145.935
QB50P2 02 Jul 11:59:16 12:03:31 75° 258° (WSW) 12:07:47 145.880/145.840
HUMSAT D 02 Jul 12:00:37 12:04:46 81° 283° (WNW) 12:08:58 437.325/437.525
POPSAT HIP 1 02 Jul 12:00:39 12:04:54 75° 258° (WSW) 12:09:09 437.405
CUBEBUG 1 02 Jul 12:01:19 12:04:31 20° 94° (E) 12:07:48 437.445
UWE-3 02 Jul 12:04:45 12:08:06 23° 288° (WNW) 12:11:25 435.000/436.395/437.385
ANTELSAT 02 Jul 12:08:35 12:12:05 23° 265° (W) 12:15:29 437.575/2403.000
DELFI C3 02 Jul 12:12:42 12:15:36 19° 290° (WNW) 12:18:23 145.870
TIGRISAT 02 Jul 12:22:48 12:25:43 17° 267° (W) 12:28:27 435.000
VELOX 1 02 Jul 12:24:35 12:29:01 76° 102° (ESE) 12:33:24 145.980
50 SAT 02 Jul 12:32:12 12:36:04 65° 284° (WNW) 12:39:57 437.505
QB50P1 02 Jul 12:40:53 12:44:25 24° 265° (W) 12:47:51 145.935-145.965
DX 1 02 Jul 12:44:00 12:47:53 32° 288° (WNW) 12:51:43 434.975-435.025
NANOSAT C BR1 02 Jul 12:56:59 12:59:46 16° 267° (W) 13:02:23 145.865
DUCHIFAT 1 02 Jul 13:05:26 13:07:40 13° 268° (W) 13:09:41 145.980
Oscar 19 02 Jul 13:05:54 13:09:25 20° 68° (ENE) 13:13:06 437.125/150
POLYITAN 1 02 Jul 13:07:48 13:09:37 12° 269° (W) 13:11:12 437.675
UKube-1 02 Jul 13:09:23 13:12:30 19° 291° (WNW) 13:15:27 .
PHONESAT 2.4 02 Jul 13:09:40 13:12:48 31° 359° (N) 13:15:56 2401.200-2431.200
AISAT 02 Jul 13:11:22 13:15:13 29° 288° (WNW) 13:18:59 437.250
SPROUT 02 Jul 13:12:14 13:16:10 36° 98° (E) 13:20:08 437.525
Cosmos 2499 02 Jul 13:19:11 13:24:53 25° 289° (WNW) 13:30:21 435.465 / 435.565
VERMONT LUNAR 02 Jul 13:27:38 13:30:45 54° 18° (NNE) 13:33:53 437.305
ESTCUBE 1 02 Jul 13:34:35 13:38:28 27° 289° (WNW) 13:42:15 437.505/2401.250
RS-15 02 Jul 13:35:57 13:47:38 66° 246° (WSW) 13:59:37 29.354- 29.394
CUBEBUG 1 02 Jul 13:37:07 13:40:54 28° 288° (WNW) 13:44:35 437.445
TISAT 1 02 Jul 14:03:22 14:07:34 81° 283° (WNW) 14:11:44 437.305
Gurwin Techsat 1B 02 Jul 14:29:59 14:34:46 37° 71° (ENE) 14:39:39 435.225
Oscar 19 02 Jul 14:43:36 14:48:30 43° 261° (W) 14:53:22 437.125/150
PHONESAT 2.4 02 Jul 14:47:51 14:51:14 48° 15° (NNE) 14:54:38 2401.200-2431.200
SPROUT 02 Jul 14:49:18 14:51:59 16° 291° (WNW) 14:54:30 437.525
ITAMSAT 1 02 Jul 14:49:34 14:54:38 56° 74° (ENE) 14:59:46 435.822/435.867
BEESAT 02 Jul 14:58:01 15:02:44 56° 101° (E) 15:07:26 436.000
AO-7 02 Jul 15:01:57 15:07:45 22° 59° (ENE) 15:13:54 29.400- 29.500
VERMONT LUNAR 02 Jul 15:04:49 15:07:35 27° 212° (SSW) 15:10:20 437.305
YUBILEINY 02 Jul 15:05:44 15:14:04 47° 77° (ENE) 15:22:28 435.215
HORYU 2 02 Jul 15:12:56 15:13:17 10° 66° (ENE) 15:13:56 437.375
SWISSCUBE 02 Jul 15:13:10 15:18:00 90° 179° (S) 15:22:48 437.505
KKS-1 02 Jul 15:15:33 15:17:05 12° 91° (E) 15:18:53 437.445
ITUPSAT 1 02 Jul 15:17:18 15:22:09 89° 102° (ESE) 15:26:58 437.325
Cosmos 2491 02 Jul 15:22:22 15:29:53 34° 87° (E) 15:37:36 435.465 / 435.565
PCSat 02 Jul 15:38:51 15:42:12 17° 106° (ESE) 15:45:47 145.827
JAS-2 02 Jul 15:40:32 15:45:17 39° 72° (ENE) 15:50:12 435.910
RS-15 02 Jul 15:55:23 15:58:36 11° 260° (W) 16:00:16 29.354- 29.394
ISS 02 Jul 16:03:34 16:06:24 28° 35° (NE) 16:09:15 145.825
Gurwin Techsat 1B 02 Jul 16:10:37 16:14:52 23° 266° (W) 16:18:59 435.225
STARS 02 Jul 16:11:26 16:15:20 32° 97° (E) 16:19:16 437.465
PHONESAT 2.4 02 Jul 16:25:58 16:29:13 37° 211° (SSW) 16:32:30 2401.200-2431.200
ITAMSAT 1 02 Jul 16:31:35 16:34:34 15° 269° (W) 16:37:16 435.822/435.867
AIST 1 02 Jul 16:37:16 16:41:38 77° 96° (E) 16:46:04
BEESAT 02 Jul 16:37:40 16:40:09 14° 294° (WNW) 16:42:24 436.000
HORYU 2 02 Jul 16:45:04 16:49:27 64° 259° (W) 16:53:51 437.375
KKS-1 02 Jul 16:49:47 16:54:04 50° 286° (WNW) 16:58:20 437.445
AO-7 02 Jul 16:51:29 16:59:49 76° 255° (WSW) 17:08:12 29.400- 29.500
MOZHAYETS 4 02 Jul 16:52:01 16:54:27 14° 91° (E) 16:57:06
Cosmos 2504 02 Jul 17:00:27 17:06:43 27° 72° (ENE) 17:13:34 435.465 / 435.565
YUBILEINY 02 Jul 17:03:05 17:10:39 33° 273° (W) 17:18:01 435.215
Cosmos 2491 02 Jul 17:18:08 17:26:33 46° 284° (WNW) 17:34:53 435.465 / 435.565
PCSat 02 Jul 17:19:58 17:25:14 52° 300° (WNW) 17:30:33 145.827
JAS-2 02 Jul 17:27:03 17:30:44 19° 268° (W) 17:34:14 435.910
AIST 2 02 Jul 17:29:58 17:30:36 10° 44° (NE) 17:31:26 435.215
JUGNU 02 Jul 17:31:17 17:33:53 13° 168° (SSE) 17:36:34 437.505
ISS 02 Jul 17:40:07 17:42:43 22° 230° (SW) 17:45:16 145.825
Cubesat XI-IV 02 Jul 17:43:50 17:46:50 16° 65° (ENE) 17:50:05 437.490
STARS 02 Jul 17:48:27 17:51:35 19° 291° (WNW) 17:54:34 437.465
SO-50 02 Jul 17:48:27 17:53:05 71° 117° (ESE) 17:57:55 436.795
BEESAT 3 02 Jul 17:52:32 17:56:35 89° 254° (WSW) 18:00:34 437.485
BEESAT 2 02 Jul 18:01:33 18:05:39 89° 60° (ENE) 18:09:39 435.950
O/OREOS (USA 219) 02 Jul 18:03:30 18:07:24 28° 63° (ENE) 18:11:23 437.305
MOZHAYETS 4 02 Jul 18:27:30 18:31:57 45° 286° (WNW) 18:36:22
CUTE-I 02 Jul 18:47:39 18:52:56 65° 74° (ENE) 18:58:16 437.470
CUBESAT XI-V 02 Jul 18:48:41 18:52:10 21° 93° (E) 18:55:45 437.345
AO-7 02 Jul 18:51:27 18:54:06 11° 273° (W) 18:55:53 29.400- 29.500
Cosmos 2504 02 Jul 18:52:57 19:00:27 53° 268° (W) 19:08:25 435.465 / 435.565
AIST 2 02 Jul 19:05:35 19:09:47 77° 242° (WSW) 19:13:53 435.215
JUGNU 02 Jul 19:18:16 19:22:12 18° 178° (S) 19:26:08 437.505
BRITE-PL 02 Jul 19:19:56 19:22:49 15° 68° (ENE) 19:25:53 437.365/2234.400
Cubesat XI-IV 02 Jul 19:21:12 19:26:29 59° 259° (W) 19:31:48 437.490
SO-50 02 Jul 19:31:33 19:34:14 14° 316° (NW) 19:36:47 436.795
HO-68 02 Jul 19:36:05 19:39:36 15° 59° (ENE) 19:43:30 435.675
CUSAT 1 02 Jul 19:40:39 19:42:49 23° 76° (ENE) 19:45:00 437.405
O/OREOS (USA 219) 02 Jul 19:43:10 19:46:43 22° 257° (WSW) 19:50:09 437.305
GONETS M04 02 Jul 19:43:26 19:48:22 17° 64° (ENE) 19:53:51
PRISM 02 Jul 19:57:42 20:01:30 34° 98° (E) 20:05:19 437.425
DOVE 4 02 Jul 20:01:49 20:03:47 13° 68° (ENE) 20:05:58 437.250
SRMSAT 02 Jul 20:06:41 20:10:09 16° 172° (S) 20:13:39 437.500
CUBESAT XI-V 02 Jul 20:25:30 20:29:41 32° 288° (WNW) 20:33:45 437.345
STRAND 1 02 Jul 20:28:52 20:34:02 81° 101° (ESE) 20:39:10 437.568
DANDE 02 Jul 20:29:37 20:32:26 78° 264° (W) 20:35:00 436.750
CUTE-I 02 Jul 20:31:00 20:33:33 13° 270° (W) 20:35:46 437.470
SEEDS 02 Jul 20:35:40 20:38:23 18° 70° (ENE) 20:41:15 437.485
GOMX 1 02 Jul 20:41:50 20:47:00 58° 76° (ENE) 20:51:54 467.674
AAUSAT CUBESAT 2 02 Jul 20:52:02 20:54:46 18° 70° (ENE) 20:57:38 437.432
BRITE-PL 02 Jul 20:55:22 21:00:56 64° 259° (W) 21:06:13 437.365/2234.400
CINEMA 3 02 Jul 21:01:11 21:04:44 23° 72° (ENE) 21:08:17 145.822/145.860
JUGNU 02 Jul 21:06:57 21:10:32 16° 188° (S) 21:14:03 437.505
M-CUBED/EXP-1 PRIME 02 Jul 21:11:37 21:14:27 17° 99° (E) 21:17:33 437.505
COMPASS 1 02 Jul 21:15:05 21:18:56 40° 74° (ENE) 21:22:51 437.405
CUTE 1.7 + AOD 2 02 Jul 21:18:05 21:22:16 73° 76° (ENE) 21:26:28 437.475
HO-68 02 Jul 21:19:20 21:26:30 89° 75° (ENE) 21:33:42 435.675
Cosmos 2499 02 Jul 21:20:41 21:23:58 13° 65° (ENE) 21:27:58 435.465 / 435.565
CANX-2 02 Jul 21:21:06 21:25:18 90° 80° (E) 21:29:32 2200.000
DELFI C3 02 Jul 21:23:23 21:24:37 11° 68° (ENE) 21:26:06 145.870
UWE-3 02 Jul 21:23:43 21:25:49 14° 69° (ENE) 21:28:07 435.000/436.395/437.385
PRISM 02 Jul 21:33:57 21:36:42 17° 291° (WNW) 21:39:17 437.425
DOVE 4 02 Jul 21:36:13 21:41:12 61° 260° (W) 21:45:53 437.250
GONETS M04 02 Jul 21:37:48 21:46:31 85° 265° (W) 21:55:12
SRMSAT 02 Jul 21:54:44 21:58:38 18° 182° (S) 22:02:30 437.500
CUBEBUG 2 02 Jul 22:02:29 22:06:43 52° 76° (ENE) 22:10:52 437.445
DX 1 02 Jul 22:02:58 22:04:11 11° 66° (ENE) 22:05:39 434.975-435.025
SEEDS 02 Jul 22:10:14 22:13:59 31° 264° (W) 22:17:41 437.485
STRAND 1 02 Jul 22:11:23 22:12:38 11° 296° (WNW) 22:13:32 437.568
AUBIESAT-1 02 Jul 22:12:46 22:17:01 79° 105° (ESE) 22:21:34 437.475
ZACube-1 02 Jul 22:13:50 22:17:49 41° 74° (ENE) 22:21:46 437.345
GOMX 1 02 Jul 22:22:36 22:25:26 14° 269° (W) 22:27:53 467.674
UKube-1 02 Jul 22:25:06 22:28:04 19° 69° (ENE) 22:31:10 .
AAUSAT CUBESAT 2 02 Jul 22:26:31 22:30:10 30° 264° (W) 22:33:48 437.432
Oscar 11 02 Jul 22:26:47 22:31:04 74° 259° (W) 22:35:22 145.826/435.025
AISAT 02 Jul 22:31:17 22:33:19 13° 67° (ENE) 22:35:34 437.250
CINEMA 3 02 Jul 22:37:54 22:41:51 27° 264° (W) 22:45:36 145.822/145.860
M-CUBED/EXP-1 PRIME 02 Jul 22:45:24 22:49:19 37° 290° (WNW) 22:53:27 437.505
HUMSAT D 02 Jul 22:49:08 22:53:01 43° 74° (ENE) 22:56:55 437.325/437.525
FUNcube-1 02 Jul 22:50:38 22:54:52 70° 259° (W) 22:59:02 145.935
COMPASS 1 02 Jul 22:52:49 22:54:51 13° 269° (W) 22:56:39 437.405
DELFI C3 02 Jul 22:55:31 22:59:21 45° 261° (W) 23:03:13 145.870
ESTCUBE 1 02 Jul 22:55:32 22:58:05 15° 68° (ENE) 23:00:51 437.505/2401.250
CUBEBUG 1 02 Jul 22:55:46 22:57:33 13° 67° (ENE) 22:59:33 437.445
UWE-3 02 Jul 22:57:59 23:02:04 41° 261° (W) 23:06:04 435.000/436.395/437.385
Cosmos 2499 02 Jul 23:10:24 23:18:19 84° 83° (E) 23:26:50 435.465 / 435.565
HO-68 02 Jul 23:11:56 23:15:14 13° 272° (W) 23:17:57 435.675
50 SAT 02 Jul 23:13:06 23:16:39 39° 74° (ENE) 23:20:16 437.505
UNISAT 6 02 Jul 23:18:31 23:22:09 26° 96° (E) 23:25:56 437.425
VELOX 1 02 Jul 23:18:48 23:23:02 44° 74° (ENE) 23:27:18 145.980
DX 1 02 Jul 23:35:40 23:39:59 58° 259° (W) 23:44:19 434.975-435.025
GONETS M04 02 Jul 23:38:21 23:42:17 13° 280° (W) 23:45:28
CUBEBUG 2 02 Jul 23:42:43 23:43:45 10° 270° (W) 23:44:29 437.445
SRMSAT 02 Jul 23:44:25 23:47:06 13° 192° (SSW) 23:49:42 437.500
BUGSAT 1 02 Jul 23:44:38 23:44:40 10° 90° (E) 23:44:59 437.445
QB50P2 02 Jul 23:48:33 23:51:48 22° 95° (E) 23:55:08 145.880/145.840
POPSAT HIP 1 02 Jul 23:49:48 23:53:02 22° 95° (E) 23:56:20 437.405
ZACube-1 02 Jul 23:52:18 23:54:24 13° 268° (W) 23:56:16 437.345
UKube-1 03 Jul 00:00:04 00:04:00 32° 263° (W) 00:07:53 .
ANTELSAT 03 Jul 00:02:24 00:06:48 87° 99° (E) 00:11:18 437.575/2403.000
SPROUT 03 Jul 00:03:54 00:06:58 20° 70° (ENE) 00:10:08 437.525
AISAT 03 Jul 00:05:09 00:09:31 50° 260° (W) 00:13:52 437.250
TIGRISAT 03 Jul 00:15:42 00:20:03 68° 284° (WNW) 00:24:27 435.000
HUMSAT D 03 Jul 00:27:26 00:29:02 12° 269° (W) 00:30:23 437.325/437.525
QB50P1 03 Jul 00:28:19 00:32:30 67° 101° (E) 00:36:40 145.935-145.965
CUBEBUG 1 03 Jul 00:29:10 00:33:30 52° 260° (W) 00:37:51 437.445
ESTCUBE 1 03 Jul 00:30:19 00:34:38 43° 262° (W) 00:38:58 437.505/2401.250
NANOSAT C BR1 03 Jul 00:43:18 00:47:30 80° 283° (WNW) 00:51:41 145.865
50 SAT 03 Jul 00:50:20 00:51:32 11° 269° (W) 00:52:29 437.505
DUCHIFAT 1 03 Jul 00:50:57 00:55:07 65° 284° (WNW) 00:59:15 145.980
TISAT 1 03 Jul 00:52:02 00:56:06 46° 74° (ENE) 01:00:11 437.305
POLYITAN 1 03 Jul 00:53:35 00:57:43 57° 285° (WNW) 01:01:50 437.675
UNISAT 6 03 Jul 00:55:20 00:58:51 23° 289° (WNW) 01:02:20 437.425
VELOX 1 03 Jul 00:57:24 00:59:51 14° 269° (W) 01:02:05 145.980
Cosmos 2499 03 Jul 01:06:14 01:10:49 16° 276° (W) 01:14:56 435.465 / 435.565
BUGSAT 1 03 Jul 01:16:35 01:20:30 48° 286° (WNW) 01:24:22 437.445
QB50P2 03 Jul 01:24:10 01:27:40 25° 289° (WNW) 01:31:03 145.880/145.840
POPSAT HIP 1 03 Jul 01:25:24 01:28:52 25° 289° (WNW) 01:32:14 437.405
SPROUT 03 Jul 01:39:03 01:42:52 30° 264° (W) 01:46:39 437.525
Cosmos 2491 03 Jul 01:39:06 01:42:10 13° 61° (ENE) 01:45:58 435.465 / 435.565
RS-15 03 Jul 01:45:56 01:54:04 27° 105° (ESE) 02:02:49 29.354- 29.394
BEESAT 03 Jul 02:01:15 02:05:45 43° 73° (ENE) 02:10:18 436.000
PCSat 03 Jul 02:10:59 02:16:21 61° 61° (ENE) 02:21:42 145.827
SWISSCUBE 03 Jul 02:16:16 02:21:01 71° 75° (ENE) 02:25:49 437.505
ITUPSAT 1 03 Jul 02:20:40 02:25:26 71° 75° (ENE) 02:30:14 437.325
SO-50 03 Jul 02:23:29 02:27:44 28° 51° (NE) 02:31:57 436.795
TISAT 1 03 Jul 02:30:29 02:32:10 12° 269° (W) 02:33:35 437.305
AIST 1 03 Jul 02:49:36 02:51:44 14° 71° (ENE) 02:54:04
Gurwin Techsat 1B 03 Jul 02:50:16 02:53:52 19° 92° (E) 02:57:40 435.225
Oscar 19 03 Jul 02:58:07 03:03:16 87° 101° (ESE) 03:08:25 437.125/150
STARS 03 Jul 03:05:48 03:08:56 20° 70° (ENE) 03:12:12 437.465
ITAMSAT 1 03 Jul 03:06:21 03:10:37 26° 95° (E) 03:14:58 435.822/435.867
Cosmos 2491 03 Jul 03:32:03 03:40:50 78° 82° (E) 03:49:33 435.465 / 435.565
BEESAT 03 Jul 03:40:49 03:43:51 16° 268° (W) 03:46:39 436.000
KKS-1 03 Jul 03:44:13 03:48:41 85° 257° (WSW) 03:53:10 437.445
RS-15 03 Jul 03:54:42 04:05:34 71° 303° (WNW) 04:16:45 29.354- 29.394
PCSat 03 Jul 03:56:15 03:59:19 15° 255° (WSW) 04:02:06 145.827
YUBILEINY 03 Jul 04:02:08 04:10:35 61° 92° (E) 04:19:07 435.215
SO-50 03 Jul 04:03:55 04:08:17 31° 247° (WSW) 04:12:29 436.795
AIST 1 03 Jul 04:25:34 04:29:40 39° 268° (W) 04:33:40
Gurwin Techsat 1B 03 Jul 04:29:02 04:34:06 45° 288° (WNW) 04:39:07 435.225
JAS-2 03 Jul 04:35:15 04:41:49 57° 100° (E) 04:49:10 435.910
HORYU 2 03 Jul 04:39:47 04:43:42 30° 97° (E) 04:47:41 437.375
STARS 03 Jul 04:41:16 04:45:12 31° 263° (W) 04:49:05 437.465
ITAMSAT 1 03 Jul 04:45:31 04:50:09 32° 290° (WNW) 04:54:41 435.822/435.867
AO-7 03 Jul 04:57:04 05:05:00 46° 100° (E) 05:12:57 29.400- 29.500
